Flag for Russia Weather past 2 weeks in Yuzhno-Sakhalinsk, Russia

Now
21 °F

Snow showers. Passing clouds.


Feels Like: 6 °F
Forecast: 15 / 26 °F
Wind: 20 mph from North

Location: Yuzhno Airport-Sakhalinsk

Current Time: Feb 28, 2015 at 3:30:51 AM

Latest Report: Feb 28, 2015 at 2:00 AM


Visibility: 1 mi

Pressure: 29.92 "Hg

Humidity: 93%

Dew point: 19 °F

Location of Yuzhno-SakhalinskLocation

Historic Weather in Yuzhno-Sakhalinsk — Graph

°F

Yuzhno-Sakhalinsk temperature yesterday

Maximum temperature yesterday: 30 °F (at 9:00 AM)
Minimum temperature yesterday: 21 °F (at 2:00 AM)
Average temperature yesterday: 27 °F

Past Weeks' High & Low Weather Summary

 TemperatureHumidityPressure
High37 °F (Feb 17, 2:30 PM)100% (Feb 13, 12:30 PM)30.30 "Hg (Feb 13, 12:30 PM)
Low-11 °F (Feb 26, 4:00 AM)47% (Feb 20, 2:00 PM)29.33 "Hg (Feb 24, 5:00 AM)
Average25 °F84%29.90 "Hg
* Reported Feb 13 2:00 AM — Feb 28 2:00 AM, Yuzhno-Sakhalinsk, Weather by CustomWeather, © 2015

Note: Actual official high and low records may vary slightly from our data, if they occured in-between our weather recording intervals... More about our weather records

Advertising

Yuzhno-Sakhalinsk weather history for previous 24 hours

 ConditionsComfort  
Time TempWeatherWind HumidityBarometerVisibility
2:00 AM
Sat, Feb 28
21 °FSnow showers. Passing clouds.20 mph93%29.92 "Hg1 mi
1:00 AM21 °FBlizzard. Ice fog.24 mph93%29.89 "Hg1 mi
12:00 AM23 °FBlizzard. Ice fog.26 mph86%29.86 "Hg0 mi
11:00 PM
Fri, Feb 27
23 °FBlizzard. Ice fog.24 mph93%29.86 "Hg0 mi
10:00 PM23 °FBlizzard. Ice fog.24 mph100%29.83 "Hg0 mi
9:30 PM23 °FBlizzard. Ice fog.29 mph100%29.83 "Hg0 mi
9:00 PM23 °FBlizzard. Ice fog.24 mph100%29.80 "Hg0 mi
8:30 PM25 °FBlizzard. Ice fog.22 mph93%29.80 "Hg0 mi
8:00 PM25 °FBlizzard. Ice fog.22 mph93%29.80 "Hg0 mi
7:30 PM25 °FBlizzard. Ice fog.22 mph100%29.80 "Hg0 mi
7:00 PM25 °FHeavy snow. Ice fog.20 mph100%29.77 "Hg1 mi
6:30 PM27 °FHeavy snow. Ice fog.17 mph93%29.77 "Hg1 mi
6:00 PM27 °FHeavy snow. Ice fog.13 mph93%29.77 "Hg1 mi
5:30 PM27 °FHeavy snow. Ice fog.13 mph93%29.77 "Hg1 mi
5:00 PM27 °FHeavy snow. Ice fog.13 mph100%29.74 "Hg1 mi
4:30 PM28 °FHeavy snow. Ice fog.15 mph93%29.74 "Hg1 mi
4:00 PM28 °FHeavy snow. Ice fog.13 mph93%29.74 "Hg1 mi
3:30 PM30 °FHeavy snow. Ice fog.15 mph86%29.74 "Hg1 mi
3:00 PM30 °FHeavy snow. Ice fog.20 mph86%29.74 "Hg1 mi
2:30 PM30 °FHeavy snow. Ice fog.20 mph93%29.71 "Hg1 mi
1:30 PM30 °FSnow showers. Ice fog.17 mph86%29.74 "Hg1 mi
12:30 PM30 °FSnow showers. Ice fog.10 mph86%29.74 "Hg1 mi
12:00 PM30 °FSnow showers. Ice fog.17 mph93%29.74 "Hg1 mi
11:30 AM30 °FSnow showers. Ice fog.20 mph93%29.77 "Hg1 mi
11:00 AM30 °FSnow showers. Ice fog.10 mph86%29.80 "Hg1 mi
10:30 AM30 °FSnow showers. Ice fog.10 mph86%29.80 "Hg1 mi
10:00 AM30 °FSnow showers. Ice fog.10 mph86%29.80 "Hg1 mi
9:30 AM28 °FSnow showers. Ice fog.20 mph93%29.80 "Hg1 mi
9:00 AM30 °FSnow showers. Partly sunny.10 mph80%29.83 "Hg2 mi
8:30 AM28 °FSnow showers. Partly sunny.3 mph86%29.83 "Hg2 mi
8:00 AM28 °FSnow showers. Partly sunny.3 mph86%29.80 "Hg2 mi
7:30 AM28 °FSnow flurries. Partly sunny.3 mph86%29.83 "Hg3 mi
7:00 AM27 °FSnow showers. Passing clouds.15 mph86%29.83 "Hg2 mi
6:30 AM25 °FSnow flurries. Passing clouds.10 mph93%29.83 "Hg3 mi
6:00 AM27 °FSnow flurries. Passing clouds.10 mph93%29.86 "Hg3 mi
5:00 AM27 °FPassing clouds.3 mph86%29.89 "HgN/A
4:00 AM23 °FPassing clouds.10 mph86%29.89 "HgN/A
3:00 AM21 °FPassing clouds.3 mph86%29.92 "HgN/A
Weather by CustomWeather, © 2015

See weather overviewHow to use our weather pages